恒星間天体ボリソフ

2I/Borisov

English version
Home page
Updated on May 17, 2021

---------------------------------------------------------------------

・ プロフィール

符号 2I/2019 Q4
発見日 2019年8月30日
発見光度 17.8等
発見者 Gennady Borisov (MARGO observatory near Nauchnij, Crimea)

・ 写真集

・ 軌道要素

Epoch 2019 Dec. 23.0 TT = JDT 2458840.5                                         
T 2019 Dec. 8.55304 TT                                  Rudenko                 
q   2.0065419            (2000.0)            P               Q                  
z  -1.1744789      Peri.  209.12395     -0.81468062     -0.19310925             
 +/-0.0000112      Node   308.14788     +0.56668004     -0.46536092             
e   3.3566410      Incl.   44.05271     -0.12316341     -0.86379860             
From 2845 observations 2018 Dec. 13-2020 Apr. 28, mean residual 0".4.           

・ 星図

・ 光度変化

        H = 12.3  G = 0.15                [    ,-110]  (              〜2019年 8月20日)
        m1 = 10.5 + 5 logΔ + 10.0 log r  [-110,    ]  (2019年 8月20日〜              )

---------------------------------------------------------------------

軌道要素はM.P.E.C. 2020-H235に掲載されたものです。
星図はステラナビゲータ Ver.10 (アストロアーツ) で作成したものです。
光度グラフはComet for Windowsで作成したものです。

---------------------------------------------------------------------

Copyright(C) Seiichi Yoshida (comet@aerith.net). All rights reserved.